Time,TemperatureF,DewpointF,PressureIn,WindDirection,WindDirectionDegrees,WindSpeedMPH,WindSpeedGustMPH,Humidity,HourlyPrecipIn,Conditions,Clouds,dailyrainin,SoftwareType,DateUTC
2013-01-12 00:22:00,45.0,-99.9,30.09,SE,132,-999.0,-999.0,-999,-99.99,,,-99.99,,2013-01-12 05:22:00,
2013-01-12 00:32:00,45.0,-99.9,30.09,SE,132,-999.0,-999.0,-999,-99.99,,,-99.99,,2013-01-12 05:32:00,
2013-01-12 00:42:00,45.0,-99.9,30.09,SE,132,-999.0,-999.0,-999,-99.99,,,-99.99,,2013-01-12 05:42:00,
2013-01-12 00:52:00,45.0,-99.9,30.09,SE,132,-999.0,-999.0,-999,-99.99,,,-99.99,,2013-01-12 05:52:00,
2013-01-12 01:23:00,45.0,-99.9,30.09,SE,132,-999.0,-999.0,-999,-99.99,,,-99.99,,2013-01-12 06:23:00,
2013-01-12 01:33:00,45.0,-99.9,30.09,SE,132,-999.0,-999.0,-999,-99.99,,,-99.99,,2013-01-12 06:33:00,
2013-01-12 01:43:00,45.0,-99.9,30.09,SE,132,-999.0,-999.0,-999,-99.99,,,-99.99,,2013-01-12 06:43:00,
2013-01-12 01:53:00,44.0,-99.9,30.10,SE,132,-999.0,-999.0,-999,-99.99,,,-99.99,,2013-01-12 06:53:00,
2013-01-12 02:22:00,44.0,-99.9,30.10,SE,132,-999.0,-999.0,-999,-99.99,,,-99.99,,2013-01-12 07:22:00,
2013-01-12 02:32:00,44.0,-99.9,30.10,SE,132,-999.0,-999.0,-999,-99.99,,,-99.99,,2013-01-12 07:32:00,
2013-01-12 02:42:00,44.0,-99.9,30.10,SE,132,-999.0,-999.0,-999,-99.99,,,-99.99,,2013-01-12 07:42:00,
2013-01-12 02:52:00,43.0,-99.9,30.11,WNW,296,-999.0,3.0,-999,-99.99,,,-99.99,,2013-01-12 07:52:00,
2013-01-12 03:22:00,43.0,-99.9,30.11,WNW,296,-999.0,3.0,-999,-99.99,,,-99.99,,2013-01-12 08:22:00,
2013-01-12 03:32:00,43.0,-99.9,30.11,WNW,296,-999.0,3.0,-999,-99.99,,,-99.99,,2013-01-12 08:32:00,
2013-01-12 03:42:00,43.0,-99.9,30.11,WNW,296,-999.0,3.0,-999,-99.99,,,-99.99,,2013-01-12 08:42:00,
2013-01-12 03:52:00,43.0,-99.9,30.10,NW,321,-999.0,-999.0,-999,-99.99,,,-99.99,,2013-01-12 08:52:00,
2013-01-12 04:22:00,43.0,-99.9,30.10,NW,321,-999.0,-999.0,-999,-99.99,,,-99.99,,2013-01-12 09:22:00,
2013-01-12 04:33:00,43.0,-99.9,30.10,NW,321,-999.0,-999.0,-999,-99.99,,,-99.99,,2013-01-12 09:33:00,
2013-01-12 04:43:00,43.0,-99.9,30.10,NW,321,-999.0,-999.0,-999,-99.99,,,-99.99,,2013-01-12 09:43:00,
2013-01-12 04:52:00,43.0,-99.9,30.11,NW,321,-999.0,-999.0,-999,-99.99,,,-99.99,,2013-01-12 09:52:00,
2013-01-12 05:22:00,43.0,-99.9,30.11,NW,321,-999.0,-999.0,-999,-99.99,,,-99.99,,2013-01-12 10:22:00,
2013-01-12 05:32:00,43.0,-99.9,30.11,NW,321,-999.0,-999.0,-999,-99.99,,,-99.99,,2013-01-12 10:32:00,
2013-01-12 05:43:00,43.0,-99.9,30.11,NW,321,-999.0,-999.0,-999,-99.99,,,-99.99,,2013-01-12 10:43:00,
2013-01-12 05:52:00,43.0,-99.9,30.11,WNW,286,-999.0,-999.0,-999,-99.99,,,-99.99,,2013-01-12 10:52:00,
2013-01-12 06:23:00,43.0,-99.9,30.11,WNW,286,-999.0,-999.0,-999,-99.99,,,-99.99,,2013-01-12 11:23:00,
2013-01-12 06:33:00,43.0,-99.9,30.11,WNW,286,-999.0,-999.0,-999,-99.99,,,-99.99,,2013-01-12 11:33:00,
2013-01-12 06:43:00,43.0,-99.9,30.11,WNW,286,-999.0,-999.0,-999,-99.99,,,-99.99,,2013-01-12 11:43:00,
2013-01-12 06:53:00,43.0,-99.9,30.13,WNW,286,-999.0,-999.0,-999,-99.99,,,-99.99,,2013-01-12 11:53:00,
2013-01-12 07:22:00,43.0,-99.9,30.13,WNW,286,-999.0,-999.0,-999,-99.99,,,-99.99,,2013-01-12 12:22:00,
2013-01-12 07:33:00,43.0,-99.9,30.13,WNW,286,-999.0,-999.0,-999,-99.99,,,-99.99,,2013-01-12 12:33:00,
2013-01-12 07:43:00,43.0,-99.9,30.13,WNW,286,-999.0,-999.0,-999,-99.99,,,-99.99,,2013-01-12 12:43:00,
2013-01-12 07:52:00,42.0,-99.9,30.15,NW,326,-999.0,-999.0,-999,-99.99,,,-99.99,,2013-01-12 12:52:00,
2013-01-12 08:23:00,42.0,-99.9,30.15,NW,326,-999.0,-999.0,-999,-99.99,,,-99.99,,2013-01-12 13:23:00,
2013-01-12 08:33:00,42.0,-99.9,30.15,NW,326,-999.0,-999.0,-999,-99.99,,,-99.99,,2013-01-12 13:33:00,
2013-01-12 08:43:00,42.0,-99.9,30.15,NW,326,-999.0,-999.0,-999,-99.99,,,-99.99,,2013-01-12 13:43:00,
2013-01-12 08:52:00,42.0,-99.9,30.16,NW,312,-999.0,-999.0,-999,-99.99,,,-99.99,,2013-01-12 13:52:00,
2013-01-12 09:22:00,42.0,-99.9,30.16,NW,312,-999.0,-999.0,-999,-99.99,,,-99.99,,2013-01-12 14:22:00,
2013-01-12 09:33:00,42.0,-99.9,30.16,NW,312,-999.0,-999.0,-999,-99.99,,,-99.99,,2013-01-12 14:33:00,
2013-01-12 09:43:00,42.0,-99.9,30.16,NW,312,-999.0,-999.0,-999,-99.99,,,-99.99,,2013-01-12 14:43:00,
2013-01-12 09:52:00,44.0,-99.9,30.17,NW,312,-999.0,-999.0,-999,-99.99,,,-99.99,,2013-01-12 14:52:00,
2013-01-12 10:23:00,44.0,-99.9,30.17,NW,312,-999.0,-999.0,-999,-99.99,,,-99.99,,2013-01-12 15:23:00,
2013-01-12 10:34:00,44.0,-99.9,30.17,NW,312,-999.0,-999.0,-999,-99.99,,,-99.99,,2013-01-12 15:34:00,
2013-01-12 10:43:00,44.0,-99.9,30.17,NW,312,-999.0,-999.0,-999,-99.99,,,-99.99,,2013-01-12 15:43:00,
2013-01-12 10:52:00,45.0,-99.9,30.16,North,-999,-999.0,-999.0,-999,-99.99,,,-99.99,,2013-01-12 15:52:00,
2013-01-12 11:23:00,45.0,-99.9,30.16,North,-999,-999.0,-999.0,-999,-99.99,,,-99.99,,2013-01-12 16:23:00,
2013-01-12 11:33:00,45.0,-99.9,30.16,North,-999,-999.0,-999.0,-999,-99.99,,,-99.99,,2013-01-12 16:33:00,
2013-01-12 11:43:00,45.0,-99.9,30.16,North,-999,-999.0,-999.0,-999,-99.99,,,-99.99,,2013-01-12 16:43:00,
2013-01-12 11:53:00,47.0,-99.9,30.14,North,-999,-999.0,-999.0,-999,-99.99,,,-99.99,,2013-01-12 16:53:00,
2013-01-12 12:23:00,47.0,-99.9,30.14,North,-999,-999.0,-999.0,-999,-99.99,,,-99.99,,2013-01-12 17:23:00,
2013-01-12 12:33:00,47.0,-99.9,30.14,North,-999,-999.0,-999.0,-999,-99.99,,,-99.99,,2013-01-12 17:33:00,
2013-01-12 12:43:00,47.0,-99.9,30.14,North,-999,-999.0,-999.0,-999,-99.99,,,-99.99,,2013-01-12 17:43:00,
2013-01-12 12:52:00,47.0,-99.9,30.15,West,272,-999.0,-999.0,-999,-99.99,,,-99.99,,2013-01-12 17:52:00,
2013-01-12 13:23:00,47.0,-99.9,30.15,West,272,-999.0,-999.0,-999,-99.99,,,-99.99,,2013-01-12 18:23:00,
2013-01-12 13:33:00,47.0,-99.9,30.15,West,272,-999.0,-999.0,-999,-99.99,,,-99.99,,2013-01-12 18:33:00,
2013-01-12 13:43:00,47.0,-99.9,30.15,West,272,-999.0,-999.0,-999,-99.99,,,-99.99,,2013-01-12 18:43:00,
2013-01-12 13:52:00,47.0,-99.9,30.15,NNE,20,-999.0,-999.0,-999,-99.99,,,-99.99,,2013-01-12 18:52:00,
2013-01-12 14:23:00,47.0,-99.9,30.15,NNE,20,-999.0,-999.0,-999,-99.99,,,-99.99,,2013-01-12 19:23:00,
2013-01-12 14:33:00,47.0,-99.9,30.15,NNE,20,-999.0,-999.0,-999,-99.99,,,-99.99,,2013-01-12 19:33:00,
2013-01-12 14:43:00,47.0,-99.9,30.15,NNE,20,-999.0,-999.0,-999,-99.99,,,-99.99,,2013-01-12 19:43:00,
2013-01-12 14:52:00,48.0,-99.9,30.14,NW,312,-999.0,5.0,-999,-99.99,,,-99.99,,2013-01-12 19:52:00,
2013-01-12 15:22:00,48.0,-99.9,30.14,NW,312,-999.0,5.0,-999,-99.99,,,-99.99,,2013-01-12 20:22:00,
2013-01-12 15:33:00,48.0,-99.9,30.14,NW,312,-999.0,5.0,-999,-99.99,,,-99.99,,2013-01-12 20:33:00,
2013-01-12 15:43:00,48.0,-99.9,30.14,NW,312,-999.0,5.0,-999,-99.99,,,-99.99,,2013-01-12 20:43:00,
2013-01-12 15:53:00,47.0,-99.9,30.15,WNW,286,-999.0,-999.0,-999,-99.99,,,-99.99,,2013-01-12 20:53:00,
2013-01-12 16:22:00,47.0,-99.9,30.15,WNW,286,-999.0,-999.0,-999,-99.99,,,-99.99,,2013-01-12 21:22:00,
2013-01-12 16:33:00,47.0,-99.9,30.15,WNW,286,-999.0,-999.0,-999,-99.99,,,-99.99,,2013-01-12 21:33:00,
2013-01-12 16:43:00,47.0,-99.9,30.15,WNW,286,-999.0,-999.0,-999,-99.99,,,-99.99,,2013-01-12 21:43:00,
2013-01-12 16:52:00,47.0,-99.9,30.16,WNW,286,-999.0,-999.0,-999,-99.99,,,-99.99,,2013-01-12 21:52:00,
2013-01-12 17:23:00,47.0,-99.9,30.16,WNW,286,-999.0,-999.0,-999,-99.99,,,-99.99,,2013-01-12 22:23:00,
2013-01-12 17:33:00,47.0,-99.9,30.16,WNW,286,-999.0,-999.0,-999,-99.99,,,-99.99,,2013-01-12 22:33:00,
2013-01-12 17:44:00,47.0,-99.9,30.16,WNW,286,-999.0,-999.0,-999,-99.99,,,-99.99,,2013-01-12 22:44:00,
2013-01-12 17:52:00,46.0,-99.9,30.17,WNW,286,-999.0,-999.0,-999,-99.99,,,-99.99,,2013-01-12 22:52:00,
2013-01-12 18:23:00,46.0,-99.9,30.17,WNW,286,-999.0,-999.0,-999,-99.99,,,-99.99,,2013-01-12 23:23:00,
2013-01-12 18:33:00,46.0,-99.9,30.17,WNW,286,-999.0,-999.0,-999,-99.99,,,-99.99,,2013-01-12 23:33:00,
2013-01-12 18:43:00,46.0,-99.9,30.17,WNW,286,-999.0,-999.0,-999,-99.99,,,-99.99,,2013-01-12 23:43:00,
2013-01-12 18:52:00,46.0,-99.9,30.16,WNW,286,-999.0,-999.0,-999,-99.99,,,-99.99,,2013-01-12 23:52:00,
2013-01-12 19:23:00,46.0,-99.9,30.16,WNW,286,-999.0,-999.0,-999,-99.99,,,-99.99,,2013-01-13 00:23:00,
2013-01-12 19:33:00,46.0,-99.9,30.16,WNW,286,-999.0,-999.0,-999,-99.99,,,-99.99,,2013-01-13 00:33:00,
2013-01-12 19:43:00,46.0,-99.9,30.16,WNW,286,-999.0,-999.0,-999,-99.99,,,-99.99,,2013-01-13 00:43:00,
2013-01-12 19:52:00,46.0,-99.9,30.16,WNW,286,-999.0,-999.0,-999,-99.99,,,-99.99,,2013-01-13 00:52:00,
2013-01-12 20:23:00,46.0,-99.9,30.16,WNW,286,-999.0,-999.0,-999,-99.99,,,-99.99,,2013-01-13 01:23:00,
2013-01-12 20:33:00,46.0,-99.9,30.16,WNW,286,-999.0,-999.0,-999,-99.99,,,-99.99,,2013-01-13 01:33:00,
2013-01-12 20:43:00,46.0,-99.9,30.16,WNW,286,-999.0,-999.0,-999,-99.99,,,-99.99,,2013-01-13 01:43:00,
2013-01-12 20:52:00,46.0,-99.9,30.14,WNW,286,-999.0,-999.0,-999,-99.99,,,-99.99,,2013-01-13 01:52:00,
2013-01-12 21:23:00,46.0,-99.9,30.14,WNW,286,-999.0,-999.0,-999,-99.99,,,-99.99,,2013-01-13 02:23:00,
2013-01-12 21:33:00,46.0,-99.9,30.14,WNW,286,-999.0,-999.0,-999,-99.99,,,-99.99,,2013-01-13 02:33:00,
2013-01-12 21:43:00,46.0,-99.9,30.14,WNW,286,-999.0,-999.0,-999,-99.99,,,-99.99,,2013-01-13 02:43:00,
2013-01-12 21:52:00,45.0,-99.9,30.14,WNW,286,-999.0,-999.0,-999,-99.99,,,-99.99,,2013-01-13 02:52:00,
2013-01-12 22:23:00,45.0,-99.9,30.14,WNW,286,-999.0,-999.0,-999,-99.99,,,-99.99,,2013-01-13 03:23:00,
2013-01-12 22:33:00,45.0,-99.9,30.14,WNW,286,-999.0,-999.0,-999,-99.99,,,-99.99,,2013-01-13 03:33:00,
2013-01-12 22:43:00,45.0,-99.9,30.14,WNW,286,-999.0,-999.0,-999,-99.99,,,-99.99,,2013-01-13 03:43:00,
2013-01-12 22:52:00,45.0,-99.9,30.14,WNW,286,-999.0,-999.0,-999,-99.99,,,-99.99,,2013-01-13 03:52:00,
2013-01-12 23:23:00,45.0,-99.9,30.14,WNW,286,-999.0,-999.0,-999,-99.99,,,-99.99,,2013-01-13 04:23:00,
2013-01-12 23:33:00,45.0,-99.9,30.14,WNW,286,-999.0,-999.0,-999,-99.99,,,-99.99,,2013-01-13 04:33:00,
2013-01-12 23:43:00,45.0,-99.9,30.14,WNW,286,-999.0,-999.0,-999,-99.99,,,-99.99,,2013-01-13 04:43:00,
2013-01-12 23:52:00,44.0,-99.9,30.15,WNW,286,-999.0,-999.0,-999,-99.99,,,-99.99,,2013-01-13 04:52:00,